GFSSGP_prec_cloud_003.txt.gz
Cloud_Cover
0 0 0 0 0 0 0 0 0 0 0 0 0 0 0 0 0 0 0 0 0 0 0 0 11 7 0 0 0 0 2 95 55 5 14 69 98 100 100 100 100 100 100 100 100 100 99 53 8
0 0 0 0 0 0 0 0 0 0 0 0 0 0 0 0 0 0 0 0 0 0 0 0 0 1 6 0 0 0 28 100 100 100 82 8 100 99 100 100 100 100 100 100 100 100 100 58 46
0 0 0 0 0 0 0 0 0 0 0 0 0 0 0 0 0 0 0 0 0 0 0 0 0 14 13 16 20 76 100 100 100 100 91 86 52 33 40 27 56 34 14 23 85 100 51 72 100
0 0 0 0 0 0 0 0 0 0 0 0 0 0 0 0 0 0 0 0 0 0 0 0 0 0 0 0 5 26 29 64 14 1 0 0 0 0 0 0 0 0 0 0 4 2 26 96 32
0 0 0 0 0 0 0 0 0 0 0 0 0 0 0 0 0 0 0 0 0 0 0 0 0 0 0 0 0 0 0 0 0 0 0 0 0 0 0 0 0 0 0 0 0 0 0 0 4
0 0 0 0 0 0 0 0 0 0 0 0 0 0 0 0 0 0 0 0 0 0 0 0 0 0 0 0 0 0 0 0 0 0 0 0 0 0 0 0 0 0 0 0 0 0 0 0 0
0 0 0 0 0 0 0 0 0 0 0 0 0 0 0 0 0 0 0 0 0 0 0 0 0 0 0 0 0 0 0 0 0 0 0 0 0 0 0 0 0 0 0 0 0 0 0 0 0
0 0 0 0 0 0 0 0 0 0 0 0 0 0 0 0 0 0 0 0 0 0 0 0 0 0 0 0 0 0 0 0 0 0 0 0 0 0 0 0 0 0 0 0 0 0 0 0 0
0 0 0 0 0 0 0 0 0 0 0 0 0 0 0 0 0 0 0 0 0 0 0 0 0 0 0 0 0 0 0 0 0 0 0 0 0 0 0 0 0 0 0 0 0 0 0 0 0
0 0 0 0 0 0 0 0 0 0 0 0 0 0 0 0 0 0 0 0 0 0 0 0 0 0 0 0 0 0 0 0 0 0 0 0 0 0 0 0 0 0 0 0 0 0 0 0 0
0 0 0 0 0 0 0 0 0 0 0 0 0 0 0 0 0 0 0 0 0 0 0 0 0 0 0 0 0 0 0 0 0 0 0 0 0 0 0 0 0 0 0 0 0 0 0 0 0
0 0 0 0 0 0 0 0 0 0 0 0 0 0 0 0 0 0 0 0 0 0 0 0 0 0 0 0 0 0 0 0 0 0 0 0 4 2 0 0 0 0 0 0 0 0 0 0 0
0 0 0 0 0 0 0 0 0 0 3 0 0 0 0 0 0 0 0 0 0 0 0 0 0 0 0 0 0 0 0 0 0 0 0 0 4 3 4 0 0 0 0 0 0 0 0 0 0
0 0 1 1 0 0 0 0 0 0 0 5 0 0 0 0 0 0 0 0 0 0 0 0 0 0 0 0 0 0 0 0 0 0 0 0 5 8 5 5 0 0 0 0 0 0 0 0 0
0 0 6 23 0 0 0 3 0 0 0 0 5 3 0 0 0 0 0 0 0 1 0 0 0 2 3 2 0 0 0 0 0 0 0 0 0 5 5 5 5 0 0 0 0 0 0 0 0
5 3 6 61 0 0 0 4 0 0 0 0 0 0 0 0 1 0 3 0 0 5 5 5 8 88 37 36 10 5 0 0 0 0 0 0 0 0 0 5 5 1 0 0 0 4 0 5 6
0 2 9 87 4 1 5 5 0 0 3 2 0 0 0 3 5 0 0 13 5 92 56 5 0 0 5 5 5 5 5 5 2 1 0 0 0 0 0 0 0 0 0 1 5 5 3 5 8
5 1 4 8 10 0 50 34 8 2 1 1 0 0 0 1 3 5 2 1 86 100 67 5 4 3 5 5 5 15 5 5 5 5 5 5 5 1 1 5 5 5 4 5 5 52 82 71 17
5 5 0 5 3 3 100 100 100 60 3 0 0 0 0 0 0 3 2 4 29 83 55 7 5 5 48 58 17 28 80 98 16 18 5 5 5 6 24 42 30 17 92 99 100 100 79 41 85
2 1 2 3 5 0 11 100 100 100 100 100 13 1 0 0 0 0 0 0 0 3 5 5 1 0 35 80 7 40 5 5 20 18 5 20 39 62 100 100 100 46 81 58 42 100 57 11 5
15 5 5 4 2 5 4 78 100 98 24 10 95 77 30 2 0 0 0 0 0 0 0 0 0 0 5 5 52 15 63 22 15 5 5 5 5 5 5 7 12 86 77 31 16 15 5 4 1
5 80 4 4 5 1 9 38 100 100 30 86 15 97 18 0 0 0 0 0 0 0 0 4 2 0 0 3 5 53 9 5 5 5 1 5 8 10 11 73 100 99 80 5 6 5 5 5 5
5 6 5 5 5 6 97 2 100 100 100 100 100 25 20 100 98 6 1 1 0 0 4 3 0 4 5 5 45 44 6 7 7 5 5 5 5 5 14 47 68 57 5 5 5 4 5 5 5
100 70 50 52 44 13 20 4 99 100 100 100 100 100 85 76 100 100 100 88 17 21 20 5 6 33 99 100 100 100 100 97 91 92 80 91 97 86 33 5 5 5 4 2 1 0 0 0 0
78 6 12 4 5 16 89 6 100 100 100 100 100 100 100 100 97 48 95 100 100 80 43 59 77 97 100 100 96 94 100 100 96 13 5 5 5 6 9 18 6 17 4 3 0 0 0 4 1
96 75 5 33 9 51 40 58 100 100 100 100 100 100 100 100 100 100 97 6 5 5 8 8 18 83 96 100 71 54 93 64 42 5 5 5 5 2 5 5 5 5 6 5 5 1 1 5 4
100 100 100 100 6 3 92 92 100 100 100 100 100 100 100 100 100 100 100 100 5 27 5 3 5 5 23 39 88 59 20 12 19 52 5 4 3 5 36 17 5 5 5 4 5 0 0 5 17
83 99 100 100 100 10 48 45 100 100 100 100 100 100 100 100 100 100 100 74 100 36 35 6 3 5 40 33 61 99 100 57 49 38 61 5 5 42 48 27 22 22 54 5 2 0 5 98 100
100 100 100 100 100 87 24 47 100 100 100 100 100 100 90 36 30 56 100 58 95 94 23 4 44 5 4 11 59 37 100 95 43 35 36 15 19 5 5 79 97 52 5 25 5 91 93 100 100
100 100 100 100 100 100 100 74 100 100 100 100 100 100 100 100 100 99 98 87 100 44 99 10 7 0 2 6 30 100 100 98 98 67 34 53 95 6 62 5 7 5 5 5 6 100 86 84 100

GFSSGP_prec_cloud_006.txt.gz
Cloud_Cover
0 0 0 0 0 0 0 0 0 0 0 0 0 0 0 0 0 0 0 0 0 0 0 0 0 5 0 6 12 1 0 9 6 14 14 93 99 100 100 100 79 100 100 96 36 50 97 60 14
0 0 0 0 0 0 0 0 0 0 0 0 0 0 0 0 0 0 0 0 0 0 0 0 0 0 0 0 0 0 0 17 85 99 75 8 100 100 100 100 100 100 100 97 100 100 100 77 96
0 0 0 0 0 0 0 0 0 0 0 0 0 0 0 0 0 0 0 0 0 0 0 0 0 5 1 0 0 0 20 100 100 100 100 93 96 100 80 98 100 100 100 100 100 100 100 100 97
0 0 0 0 0 0 0 0 0 0 0 0 0 0 0 0 0 0 0 0 0 0 0 0 12 29 12 0 1 100 100 100 98 41 15 82 79 94 56 62 99 100 100 100 100 100 100 100 100
0 0 0 0 0 0 0 0 0 0 0 0 0 0 0 0 0 0 0 0 0 0 0 0 4 9 2 3 6 45 88 22 0 0 0 0 0 4 21 74 28 30 10 57 54 74 92 81 19
0 0 0 0 0 0 0 0 0 0 0 0 0 0 0 0 0 0 0 0 0 0 0 0 0 0 0 0 0 0 0 0 0 0 0 0 0 0 0 0 0 0 0 0 0 0 1 0 0
0 0 0 0 0 0 0 0 0 0 0 0 0 0 0 0 0 0 0 0 0 0 0 0 0 0 0 0 0 0 0 0 0 0 0 0 0 0 0 0 0 0 0 0 0 0 0 0 0
0 0 0 0 0 0 0 0 0 0 0 0 0 0 0 0 0 0 0 0 0 0 0 0 0 0 0 0 0 0 0 0 0 0 0 0 0 0 0 0 0 0 0 0 0 0 0 0 0
0 0 0 0 0 0 0 0 0 0 0 0 0 0 0 0 0 0 0 0 0 0 0 0 0 0 0 0 0 0 0 0 0 0 0 0 0 0 0 0 0 0 0 0 0 0 0 0 0
0 0 0 0 0 0 0 0 0 0 0 0 0 0 0 0 0 0 0 0 0 0 0 0 0 0 0 0 0 0 0 0 0 0 0 0 0 0 0 0 0 0 0 0 0 0 0 0 0
0 0 0 0 0 0 0 0 0 0 0 0 0 0 0 0 0 0 0 0 0 0 0 0 0 0 0 0 0 0 0 0 0 0 0 0 0 0 0 0 0 0 0 0 0 0 0 0 0
0 0 0 0 0 0 0 0 0 0 0 0 0 0 0 0 0 0 0 0 0 0 0 0 0 0 0 0 0 0 0 0 0 0 0 0 0 0 0 0 0 0 0 0 0 0 0 0 0
3 10 0 0 0 0 0 0 0 0 0 0 0 0 0 0 0 0 0 0 0 0 0 0 0 0 0 0 0 0 0 0 0 0 0 0 0 0 0 0 0 0 0 0 0 0 0 0 0
98 100 4 8 3 1 0 0 0 0 0 0 0 0 0 0 0 0 0 0 0 0 0 0 0 0 0 0 0 0 0 0 0 0 0 0 0 0 0 0 0 0 0 0 0 0 0 0 0
85 44 8 100 5 0 1 83 5 0 0 0 0 0 0 0 0 0 0 0 0 0 0 0 0 0 0 0 0 0 0 0 0 0 0 0 0 0 0 0 0 0 0 0 0 0 0 0 0
5 2 35 100 3 0 5 100 24 0 0 0 0 0 1 0 0 0 0 0 0 0 0 0 0 5 3 0 0 0 0 0 0 0 0 0 0 0 0 0 0 0 0 0 0 0 0 0 0
2 33 51 54 29 0 1 99 100 8 0 0 0 0 0 0 30 2 0 0 0 2 0 2 6 35 41 5 2 0 0 0 0 0 0 0 0 0 0 0 0 0 0 0 0 0 1 0 1
5 2 5 5 98 3 0 58 100 41 0 0 0 0 0 0 5 1 0 0 0 4 5 4 5 5 25 69 9 5 3 0 0 2 0 0 0 4 0 0 0 0 0 0 0 3 2 0 0
5 0 0 5 2 0 0 60 100 100 100 5 0 0 0 0 0 0 1 0 0 3 5 1 5 5 5 5 5 5 5 5 5 5 5 5 8 5 5 5 1 0 0 0 0 4 4 4 8
5 5 0 3 2 1 1 12 100 100 100 100 0 0 0 0 0 0 0 0 0 0 2 5 5 5 4 1 4 18 10 20 5 6 6 20 42 36 26 45 12 5 5 5 5 5 5 5 5
4 3 5 4 3 5 5 72 70 100 100 100 85 0 0 0 0 0 0 0 0 0 0 5 5 5 5 4 5 5 5 6 8 6 70 43 87 99 100 99 48 5 5 5 5 5 5 14 20
100 99 39 6 5 21 11 28 100 100 100 100 96 96 40 0 0 0 0 0 0 0 0 0 0 0 0 0 0 1 4 19 30 5 5 9 20 49 19 9 30 34 70 82 70 93 91 60 7
9 98 99 100 43 70 24 26 100 100 100 100 100 100 100 62 5 1 0 0 0 0 0 0 0 0 0 0 0 2 5 6 5 23 72 90 90 90 85 68 26 38 5 6 16 34 8 5 5
5 78 39 100 89 100 100 100 94 100 100 100 100 100 98 100 100 94 60 13 1 0 0 0 0 0 0 0 0 1 5 5 33 62 64 9 1 3 33 7 6 22 60 68 81 39 5 5 1
5 5 11 11 7 100 96 92 100 100 76 100 100 100 100 100 97 100 100 100 100 94 7 1 0 0 0 5 19 3 4 3 5 39 51 35 16 5 5 5 5 3 5 4 3 2 2 2 2
99 52 14 72 0 14 70 96 100 100 100 100 100 100 100 100 100 100 100 100 100 100 100 100 100 93 24 49 49 15 99 59 72 79 63 100 89 41 5 2 30 49 28 16 6 5 5 5 3
100 100 100 100 38 1 2 69 100 100 100 100 100 53 100 100 100 100 100 100 100 100 100 100 100 100 100 100 100 100 100 92 100 80 76 79 60 100 100 100 93 54 94 42 5 9 6 5 5
100 100 100 100 100 100 38 1 100 100 100 100 100 100 100 100 100 100 100 100 100 100 100 100 69 6 13 82 97 96 99 100 99 47 23 6 12 5 5 5 86 100 100 100 89 6 5 7 5
100 100 100 100 100 100 100 60 88 99 100 100 100 100 100 100 100 100 100 63 92 100 100 100 100 100 100 98 93 69 100 37 41 100 100 100 65 13 74 68 7 42 57 80 86 84 5 42 35
100 100 100 100 100 100 100 100 100 100 100 73 100 100 44 61 100 100 100 100 100 100 100 100 80 92 100 100 100 100 100 100 100 98 99 100 100 60 20 100 100 92 100 100 100 100 70 5 35

GFSSGP_prec_cloud_009.txt.gz
Cloud_Cover
0 0 0 0 0 0 0 0 0 0 0 0 0 0 0 0 0 0 0 0 0 1 0 0 0 0 1 0 0 0 0 5 20 37 31 16 100 100 100 100 94 100 72 100 100 100 100 100 86
0 0 0 0 0 0 0 0 0 0 0 0 0 0 0 0 0 0 0 0 0 3 0 0 0 0 21 16 0 3 1 7 11 62 70 11 100 100 100 100 100 100 100 99 58 80 58 6 20
0 0 0 0 0 0 0 0 0 0 0 0 0 0 0 0 0 0 0 0 0 0 0 0 0 14 30 2 0 0 0 90 100 100 100 100 99 100 100 100 100 100 100 99 100 97 86 12 4
0 0 0 0 0 0 0 0 0 0 0 0 0 0 0 0 0 0 0 0 0 0 0 0 0 14 50 0 0 0 0 60 100 100 100 60 16 0 3 3 16 69 100 100 100 100 100 94 65
0 0 0 0 0 0 0 0 0 0 0 0 0 0 0 0 0 0 0 0 0 0 0 0 0 78 38 0 0 0 8 100 100 82 15 0 0 0 3 4 5 5 5 51 100 100 71 100 100
0 0 0 0 0 0 0 0 0 0 0 0 0 0 0 0 0 0 0 0 0 0 0 0 0 49 1 6 0 75 87 91 16 0 0 0 0 2 5 5 5 5 5 5 5 5 58 72 94
0 0 0 0 0 0 0 0 0 0 0 0 0 0 0 0 0 0 0 0 0 0 0 0 0 0 0 7 0 2 57 0 0 0 0 0 0 0 0 0 0 0 1 3 5 4 2 8 6
0 0 0 0 0 0 0 0 0 0 0 0 0 0 0 0 0 0 0 0 0 0 0 0 0 0 0 0 0 0 0 0 0 0 0 0 0 0 0 0 0 0 0 0 0 0 0 0 0
0 0 0 0 0 0 0 0 0 0 0 0 0 0 0 0 0 0 0 0 0 0 0 0 0 0 0 0 0 0 0 0 0 0 0 0 0 0 0 0 0 0 0 0 0 0 0 0 0
0 0 0 0 0 0 0 0 0 0 0 0 0 0 0 0 0 0 0 0 0 0 0 0 0 0 0 0 0 0 0 0 0 0 0 0 0 0 0 0 0 0 0 0 0 0 0 0 0
0 0 0 0 0 0 0 0 0 0 0 0 0 0 0 0 0 0 0 0 0 0 0 0 0 0 0 0 0 0 0 0 0 0 0 0 0 0 0 0 0 0 0 0 0 0 0 0 0
4 0 40 2 0 0 5 4 0 2 0 0 0 0 0 0 0 0 0 0 0 0 0 0 0 0 0 0 0 0 0 0 0 0 0 0 0 0 0 0 0 0 0 0 0 0 0 0 0
97 100 39 11 5 1 0 4 5 21 0 0 0 0 0 0 0 0 0 0 0 0 0 0 0 0 0 0 0 0 0 0 0 0 0 0 0 0 0 0 0 0 0 0 0 0 0 0 0
100 25 100 97 19 5 0 3 0 1 0 0 0 0 0 0 0 0 0 0 0 0 0 0 0 0 0 0 0 0 0 0 0 0 0 0 0 0 0 0 0 0 0 0 0 0 0 0 0
49 4 57 66 59 0 0 80 6 0 0 0 0 0 0 0 0 0 0 2 5 4 0 0 0 0 0 0 0 0 0 0 0 0 0 0 0 0 0 0 0 0 0 0 0 0 0 0 0
5 0 22 20 58 3 0 6 100 11 0 0 0 0 0 0 0 0 0 0 5 5 5 5 5 5 2 0 0 0 0 0 0 0 0 0 0 0 0 0 0 0 0 0 0 0 0 0 0
5 71 7 4 25 2 0 46 46 87 8 2 1 0 0 0 2 5 5 0 0 2 4 4 5 6 1 0 0 0 0 0 0 0 0 0 0 0 0 0 0 0 0 0 0 0 0 0 0
5 5 5 5 52 0 1 6 98 6 34 79 98 2 0 0 0 0 2 2 0 0 4 4 0 2 5 5 0 0 0 0 0 0 1 0 0 0 0 0 0 0 0 0 0 0 0 0 0
5 5 26 65 4 2 14 85 100 75 45 100 59 5 0 0 0 0 0 0 0 0 5 0 0 0 0 5 5 4 5 0 0 0 0 3 4 5 5 5 5 4 5 4 5 0 0 0 0
77 55 41 83 100 70 5 100 100 100 72 61 9 4 0 0 0 0 0 0 0 0 0 0 4 2 0 1 5 14 5 5 7 10 5 5 5 5 5 5 5 5 13 7 5 5 3 0 0
10 10 4 30 19 20 49 99 100 100 98 44 1 17 93 21 0 0 0 0 0 0 0 0 0 0 3 5 5 18 40 95 77 27 5 5 5 5 5 5 24 21 59 89 100 12 5 13 63
6 14 12 5 5 63 13 29 100 100 100 100 100 11 48 85 87 4 0 0 0 0 0 0 0 0 0 0 0 6 12 62 35 7 4 5 5 5 5 5 5 6 95 100 83 26 28 14 28
98 5 5 5 99 100 81 27 100 100 100 100 100 100 42 34 31 6 6 5 0 0 0 0 0 0 0 0 0 0 0 0 0 1 5 51 11 6 28 14 12 53 97 100 51 29 44 57 8
59 82 26 4 5 34 34 15 98 100 100 100 100 100 100 88 88 100 100 100 84 83 21 4 1 0 0 0 0 0 0 0 5 5 8 5 5 5 4 5 5 5 5 23 16 5 10 6 4
6 58 21 6 32 64 30 2 100 100 100 100 100 100 100 100 99 11 95 100 96 69 100 100 62 4 0 0 0 0 0 0 0 0 3 5 4 5 7 32 2 3 5 4 48 79 89 48 40
6 24 9 61 0 2 6 20 97 100 99 5 100 100 100 100 100 100 100 100 100 100 100 100 66 90 100 91 8 5 5 6 1 5 22 74 73 53 75 6 5 5 3 5 5 6 5 7 26
45 7 74 97 94 33 2 1 4 100 100 100 100 100 100 100 100 100 100 100 99 100 100 100 100 100 100 100 100 100 100 85 100 100 55 81 97 100 100 100 100 92 5 5 8 36 79 26 8
100 100 63 100 100 100 98 86 31 36 98 24 33 78 100 100 100 82 89 100 34 98 96 100 100 96 100 98 88 100 100 100 100 100 100 100 100 100 100 100 100 100 100 50 11 71 44 55 61
100 100 100 100 100 100 96 55 92 92 56 53 25 96 100 100 100 100 100 88 89 90 100 100 99 11 100 100 100 100 100 100 100 100 100 100 100 100 100 100 100 100 100 98 12 5 9 71 100
100 100 100 100 100 100 100 100 69 100 100 100 100 100 100 100 100 100 100 100 100 96 100 100 30 15 49 65 100 100 100 100 100 100 100 100 100 100 100 100 100 100 100 100 99 38 10 9 35

GFSSGP_prec_cloud_012.txt.gz
Cloud_Cover
0 0 0 0 0 0 0 0 0 0 0 0 0 0 0 0 0 0 0 0 0 0 6 0 0 0 0 0 0 0 0 0 0 0 10 100 100 100 100 43 22 15 100 100 95 74 91 66 59
0 0 0 0 0 0 0 0 0 0 0 0 0 0 0 0 0 0 0 0 0 0 10 1 0 0 0 0 0 0 0 0 10 0 2 9 99 100 100 100 100 21 100 68 18 20 51 50 29
0 0 0 0 0 0 0 0 0 0 0 0 0 0 0 0 0 0 0 0 4 17 9 0 0 0 0 14 0 0 0 5 11 92 100 86 100 100 93 100 100 100 100 99 54 5 5 5 5
0 0 0 0 0 0 0 0 0 0 0 0 0 0 0 0 0 0 0 0 11 17 7 0 0 0 11 0 0 0 0 18 100 100 99 100 23 31 2 2 100 100 100 100 100 100 99 100 99
0 0 0 0 0 0 0 0 0 0 0 0 0 0 0 0 0 0 0 1 1 12 1 0 0 0 100 22 17 0 0 18 100 100 100 100 59 2 0 0 2 98 100 100 100 100 100 100 100
0 0 0 0 0 0 0 0 0 0 0 0 0 0 0 0 0 0 0 0 0 3 0 0 0 0 95 21 2 0 0 3 100 100 100 15 0 0 0 0 0 1 6 21 54 17 23 5 5
0 0 0 0 0 0 0 0 0 0 0 0 0 0 0 0 0 0 0 0 0 0 0 0 0 0 66 53 0 0 0 68 100 90 16 0 0 0 0 0 0 0 0 1 0 0 1 2 0
5 5 0 0 0 0 0 0 0 0 0 0 0 0 0 0 0 0 0 0 0 0 0 0 0 0 10 0 0 0 61 100 0 0 0 0 0 0 0 0 0 0 0 0 0 0 0 0 0
3 0 0 0 0 0 0 0 0 0 0 0 0 0 0 0 0 0 0 0 0 0 0 0 0 0 0 0 29 5 66 5 0 0 0 0 0 0 0 0 0 0 0 0 0 0 0 0 0
0 0 0 0 0 0 0 0 0 0 0 0 0 0 0 0 0 0 0 0 0 0 0 0 0 0 0 0 0 1 29 0 0 0 0 0 0 0 0 0 0 0 0 0 0 0 0 0 0
0 0 0 2 2 5 2 83 5 5 0 0 0 0 0 0 0 0 0 0 0 0 0 0 0 0 0 0 0 6 0 0 0 0 0 0 0 0 0 0 0 0 0 0 0 0 0 0 0
0 1 0 2 2 5 5 18 12 1 0 6 0 0 0 0 0 0 0 0 0 0 0 0 0 0 0 0 2 0 0 0 0 0 0 0 0 0 0 0 0 0 0 0 0 0 0 0 0
0 5 5 5 5 15 0 14 100 2 0 5 0 0 0 0 0 0 0 0 0 0 0 0 0 0 0 0 1 0 0 0 0 0 0 0 0 0 0 0 0 0 0 0 0 0 0 0 0
4 5 5 5 1 22 0 4 5 0 0 0 0 0 0 0 0 0 0 0 0 0 0 0 0 0 0 0 0 0 0 0 0 0 0 0 0 0 0 0 0 0 0 0 0 0 0 0 0
0 5 5 5 26 3 0 71 5 0 0 0 0 0 0 0 0 0 0 0 0 0 0 0 0 0 0 0 0 0 0 0 0 0 0 0 0 0 0 0 0 0 0 0 0 0 0 0 0
5 0 3 35 2 2 1 93 5 1 0 5 6 1 0 0 1 0 0 0 0 0 1 1 0 0 1 0 0 0 0 0 0 0 0 0 0 0 0 0 0 0 0 0 0 0 0 0 0
5 64 26 36 86 0 0 90 65 2 4 1 26 57 0 0 5 2 5 5 3 1 1 4 5 3 4 5 5 3 4 2 0 0 0 0 0 0 0 0 0 0 0 0 0 0 0 0 0
98 91 88 93 63 0 4 67 92 8 0 5 5 0 0 0 2 0 2 2 5 5 5 5 5 3 1 4 5 5 5 12 4 2 0 0 0 0 0 0 0 0 0 0 0 0 0 0 0
5 20 27 99 100 8 75 52 100 100 14 5 5 0 0 0 0 0 0 0 0 1 0 5 39 58 5 2 4 6 13 5 5 5 5 2 0 0 0 0 3 4 5 2 0 0 2 4 5
8 89 100 100 100 42 6 27 100 100 100 58 100 46 5 2 0 1 0 0 0 0 0 0 2 5 20 27 5 5 2 5 5 4 4 5 5 5 5 50 16 16 5 5 7 5 3 5 3
5 4 57 5 94 100 99 96 100 100 100 100 100 100 100 86 99 35 1 2 0 0 0 0 0 0 1 4 0 0 0 2 5 5 5 0 5 5 5 5 5 5 5 5 5 4 5 5 2
21 39 23 20 13 96 64 94 100 100 100 100 100 97 100 85 100 100 100 85 0 0 0 0 0 3 0 0 0 0 0 0 0 0 4 5 5 5 5 5 5 5 4 1 4 5 14 31 55
5 19 56 100 85 100 100 69 100 100 100 100 100 100 100 32 26 35 54 91 67 4 5 1 0 0 5 5 3 2 0 0 0 0 0 1 5 5 4 5 5 5 0 0 0 5 44 75 59
56 29 21 25 99 100 99 25 100 100 100 100 99 100 100 100 100 84 98 82 24 1 0 4 5 1 0 0 6 99 100 76 2 0 0 0 0 0 1 5 5 53 21 1 1 3 23 7 5
85 36 8 22 79 98 96 75 100 100 100 100 89 29 91 100 100 100 100 100 100 100 62 5 5 0 5 2 0 10 57 100 99 31 2 0 2 4 5 2 6 45 68 9 5 5 5 99 100
89 100 84 98 8 12 7 75 100 100 100 100 100 100 100 98 100 100 87 54 100 100 100 100 93 88 63 5 0 5 55 85 100 84 84 44 97 72 3 10 57 68 79 9 5 5 5 59 100
98 100 100 100 100 79 9 5 78 100 100 100 100 74 66 99 45 5 24 13 4 5 7 99 100 100 100 100 37 5 5 12 5 5 6 8 9 65 100 90 97 99 54 49 80 18 8 11 87
99 100 100 96 100 100 46 81 76 100 100 83 100 100 100 33 5 7 4 42 97 32 6 5 47 100 100 100 100 100 100 100 65 72 8 28 46 100 100 22 100 100 97 99 100 100 97 52 11
100 100 100 100 100 100 100 100 100 84 99 100 100 100 100 100 100 100 94 1 5 17 5 16 16 23 100 96 32 100 100 100 100 100 100 100 100 100 100 94 49 100 100 100 100 100 100 98 93
100 100 100 100 100 100 100 98 100 100 100 100 100 100 88 6 99 87 87 76 14 83 89 99 53 30 100 100 100 100 100 100 100 100 100 100 100 100 100 100 100 100 100 100 100 100 100 99 100

GFSSGP_prec_cloud_015.txt.gz
Cloud_Cover
0 0 0 0 0 0 0 0 0 0 0 0 0 0 0 0 0 0 0 0 0 0 12 14 0 0 0 0 0 0 0 0 0 7 0 0 76 99 100 100 100 28 76 96 100 74 100 82 68
0 0 0 0 0 0 0 0 0 0 0 0 0 0 0 0 0 0 0 0 0 0 0 23 0 0 0 0 0 0 0 3 5 12 19 2 0 100 100 44 3 13 95 88 22 91 100 100 100
0 0 0 0 0 0 0 0 0 0 0 0 0 0 0 0 0 0 0 0 0 0 5 6 0 0 0 0 0 0 0 0 8 0 2 12 77 97 100 100 100 97 61 24 25 4 5 5 5
0 0 0 0 0 0 0 0 0 0 0 0 0 0 0 0 0 0 0 0 5 4 14 0 0 0 0 0 0 0 0 0 0 11 100 100 100 100 100 34 99 100 100 100 100 90 14 5 5
5 4 0 0 0 0 0 0 0 0 0 0 0 0 0 0 0 0 0 0 2 11 20 13 0 0 0 1 0 0 0 0 34 100 43 100 100 100 16 0 0 0 20 100 100 100 100 67 10
5 5 1 0 5 0 0 0 0 0 0 0 0 0 0 0 0 0 0 0 0 7 26 19 0 0 0 0 0 0 0 0 94 100 83 100 95 9 0 0 0 0 0 0 8 52 69 55 48
5 5 4 4 5 1 0 0 0 0 0 0 0 0 0 0 0 0 0 0 0 0 11 13 19 0 8 100 8 0 0 0 66 100 100 100 3 0 0 0 0 0 0 0 0 1 43 86 88
5 5 0 0 0 0 0 0 0 0 0 0 0 0 0 0 0 0 0 0 0 0 0 7 15 0 0 84 80 10 0 0 2 100 100 1 0 0 0 0 0 0 0 0 0 0 0 3 5
0 1 0 0 0 0 0 0 26 47 0 0 0 0 0 0 0 0 0 0 0 0 0 0 13 13 0 0 18 37 0 0 27 100 19 0 0 0 0 0 0 0 0 0 0 0 0 0 0
0 0 0 0 0 95 5 89 100 16 0 48 4 0 0 0 0 0 0 0 0 0 0 0 5 21 0 0 0 36 0 1 99 1 0 0 0 0 0 0 0 0 0 0 0 0 0 0 0
0 0 0 0 0 39 16 53 68 2 0 43 0 0 0 0 0 0 0 0 0 0 0 0 0 8 1 0 2 48 44 98 63 0 0 0 0 0 0 0 0 0 0 0 0 0 0 0 0
0 0 0 0 0 5 51 100 90 0 0 30 0 0 0 0 0 0 0 0 0 0 0 0 0 0 3 0 0 1 19 59 1 0 0 0 0 0 0 0 0 0 0 0 0 0 0 0 0
5 1 0 0 0 7 46 100 100 2 0 0 1 0 0 0 0 0 0 0 0 0 0 0 0 0 0 0 0 0 0 0 0 0 0 0 0 0 0 0 0 0 0 0 0 0 0 0 0
5 5 0 2 1 1 1 18 62 6 7 1 1 5 0 0 0 0 0 0 0 0 0 0 0 0 0 0 0 0 0 0 0 0 0 0 0 0 0 0 0 0 0 0 0 0 0 0 0
48 5 5 5 5 0 0 4 0 0 0 2 0 5 1 0 0 0 0 0 0 0 0 0 0 0 0 0 0 0 0 0 0 0 0 0 0 0 0 0 0 0 0 0 0 0 0 0 0
8 15 78 86 11 3 5 96 10 0 0 4 5 5 0 0 0 0 0 0 0 0 0 0 0 0 0 0 0 0 0 0 0 0 0 0 0 0 0 0 0 0 0 0 0 0 0 0 0
5 86 99 100 100 28 12 100 82 2 0 4 5 5 0 0 0 0 0 0 2 4 5 4 4 4 5 5 2 0 0 0 0 0 0 0 1 4 2 0 0 0 0 0 0 0 0 0 0
7 5 5 28 63 6 92 100 100 100 69 98 24 4 0 0 0 0 0 0 6 12 4 5 5 5 5 5 5 4 0 0 0 0 0 0 0 5 5 4 1 0 0 0 0 0 0 0 0
5 5 5 5 25 6 100 100 100 100 100 100 100 6 1 0 0 0 1 0 0 2 5 5 0 5 5 2 5 6 9 5 5 5 4 0 0 5 5 8 48 10 5 2 5 3 0 0 0
34 5 93 100 99 25 65 100 100 100 100 100 100 88 11 30 62 17 1 0 0 0 4 5 12 5 5 5 5 5 5 5 5 8 10 22 5 5 5 5 22 15 5 5 5 5 5 1 0
89 46 40 96 96 85 95 100 100 100 100 100 100 100 100 100 76 22 30 14 1 0 0 1 4 3 1 0 0 2 5 5 4 3 5 4 3 3 5 5 5 5 5 5 6 5 5 5 21
14 40 76 34 95 45 98 95 100 100 100 100 100 100 100 100 45 20 87 100 87 1 0 0 0 0 0 0 0 0 2 4 5 2 0 0 0 0 0 0 2 5 17 14 5 8 11 5 5
59 36 20 88 39 69 100 26 100 100 100 100 100 100 100 100 98 43 7 0 4 2 3 2 1 0 0 0 0 0 0 5 5 5 4 5 3 0 1 0 0 0 3 5 5 5 6 12 5
60 27 17 3 38 98 86 73 100 100 100 100 100 100 100 100 100 99 44 100 100 100 100 100 100 25 0 1 0 0 0 1 1 4 10 5 37 74 100 60 56 6 3 12 42 6 0 1 0
100 84 20 22 8 13 26 69 100 100 100 100 100 100 83 4 2 66 100 100 100 100 100 100 87 41 97 21 0 0 0 0 0 1 5 89 48 85 52 10 74 44 58 8 26 65 97 4 0
100 100 100 100 15 36 5 33 100 100 100 100 100 100 73 3 0 16 100 53 100 100 100 100 100 100 100 100 100 85 33 9 0 0 0 67 74 94 96 100 100 100 100 87 7 63 100 100 56
100 100 100 100 100 93 4 11 86 100 100 48 5 5 5 2 5 0 46 99 7 92 84 100 100 100 100 100 100 100 100 70 100 72 1 2 37 98 100 100 100 100 100 100 100 100 63 94 100
100 100 100 100 100 100 25 6 15 100 100 100 89 20 42 89 76 19 9 5 14 32 58 67 10 98 100 100 100 100 100 100 96 100 100 63 94 89 100 42 100 100 99 24 62 100 100 100 100
100 100 100 100 100 100 100 100 100 100 100 100 100 100 69 100 100 100 100 100 91 72 72 28 90 25 56 100 99 100 100 100 100 90 82 100 100 100 100 100 100 100 100 100 21 78 100 100 100
100 100 100 100 100 100 100 100 100 100 100 100 100 100 100 100 100 100 100 100 93 100 100 99 70 100 95 98 100 100 100 100 99 71 92 100 61 52 98 100 99 88 24 100 66 96 100 100 100

GFSSGP_prec_cloud_021.txt.gz
Cloud_Cover
0 0 0 0 0 0 0 0 0 0 0 0 0 0 0 0 0 0 0 0 0 0 0 0 0 0 1 0 0 0 0 0 0 4 4 14 19 38 99 86 8 89 83 35 10 74 100 100 97
0 0 0 0 0 0 0 0 0 0 0 0 0 0 0 0 0 0 0 0 0 0 0 0 0 0 0 0 0 0 0 0 0 0 2 9 14 15 89 37 39 29 63 100 13 17 96 56 79
0 0 0 0 0 0 0 0 0 0 0 0 0 0 0 0 0 0 0 0 0 0 0 0 0 0 0 0 0 0 0 0 0 0 0 8 13 21 1 0 74 100 100 33 5 43 82 62 21
0 0 0 0 0 0 0 0 0 0 0 0 0 0 0 0 0 0 0 0 0 0 0 0 0 0 0 0 0 0 0 0 0 14 13 5 5 0 0 70 100 66 100 99 95 96 100 100 10
1 4 5 0 0 0 0 0 0 0 0 0 0 0 0 0 0 0 0 0 0 0 0 0 0 0 0 0 0 0 0 1 0 0 0 0 0 81 95 31 100 72 0 98 100 100 100 7 5
0 0 0 0 0 0 0 0 0 0 0 0 0 0 0 0 0 0 0 0 0 0 0 0 19 0 0 0 0 0 0 0 0 0 0 0 0 55 100 6 27 0 0 0 37 90 100 100 24
0 0 0 0 0 0 0 0 1 0 0 0 0 0 0 0 0 0 0 0 0 0 0 0 0 5 45 0 0 0 0 0 0 0 0 0 0 88 100 0 5 0 0 0 0 0 0 6 100
0 0 0 0 0 0 4 56 22 5 0 0 9 0 0 0 0 0 0 0 0 0 0 0 0 0 0 4 5 0 0 0 0 0 0 0 0 100 10 0 0 0 0 0 0 0 0 0 0
0 0 0 0 0 0 4 68 61 0 0 4 0 0 0 0 0 0 0 0 0 0 0 0 0 0 0 4 10 33 11 0 0 0 0 5 0 22 0 0 0 0 0 0 0 0 0 0 0
0 2 0 0 0 0 0 38 100 33 0 25 3 3 0 0 0 0 0 0 0 0 0 0 0 0 0 0 1 5 96 54 43 38 23 3 0 0 0 0 0 0 0 0 0 0 0 0 0
5 0 0 1 0 0 0 0 99 94 60 100 73 3 0 0 0 0 0 0 0 0 0 0 0 0 0 0 0 0 6 100 42 33 99 89 2 0 0 0 0 0 0 0 0 0 0 0 0
4 4 0 2 0 0 0 4 5 98 3 15 87 81 32 5 0 0 0 0 0 0 0 0 0 0 0 0 0 0 0 48 64 0 4 91 22 0 0 0 0 0 0 0 0 0 0 0 0
5 5 5 0 0 5 1 0 5 48 0 4 4 5 51 5 0 0 0 0 0 0 4 4 0 0 0 0 0 0 0 0 0 0 1 2 15 0 0 0 0 0 0 0 0 0 0 0 0
5 5 5 1 0 5 14 22 5 33 3 2 4 5 5 3 0 0 0 0 0 0 1 1 1 0 0 0 0 0 0 0 0 1 0 10 0 0 0 0 0 0 0 0 0 0 0 0 0
39 21 62 14 5 4 5 97 6 5 5 71 5 0 0 0 0 0 0 0 0 0 0 0 0 0 0 0 0 0 0 0 0 3 0 8 0 0 0 0 0 0 0 0 0 0 0 0 0
5 5 69 100 49 5 4 90 82 60 59 49 6 8 0 0 0 0 0 0 0 0 0 0 0 0 0 0 0 0 0 0 0 0 0 0 0 0 0 0 0 0 0 0 0 0 0 0 0
16 5 6 9 100 4 4 47 100 96 9 5 34 80 100 100 89 4 0 0 0 4 1 0 0 0 0 0 0 0 0 0 0 0 0 0 0 0 0 0 0 0 0 0 0 0 0 0 0
5 6 68 43 44 5 5 86 59 28 5 5 18 6 27 44 45 4 26 18 0 0 5 9 3 5 4 1 0 0 0 0 0 0 0 0 0 0 0 0 0 0 0 0 0 0 0 0 3
17 47 13 79 81 70 100 100 100 12 71 100 100 4 0 0 0 0 4 5 20 4 1 33 91 18 5 5 0 0 0 2 2 0 0 10 1 0 2 4 5 5 5 2 0 0 0 0 0
6 71 88 100 96 8 100 100 100 66 76 36 40 17 41 6 1 0 3 5 7 5 0 0 74 98 42 5 9 79 100 74 12 6 3 48 14 0 0 0 5 12 8 6 8 5 4 2 0
100 64 34 54 59 99 73 100 100 100 86 99 9 61 27 72 98 20 21 5 5 17 6 4 20 98 92 59 15 91 100 99 46 15 5 52 30 18 0 1 2 5 5 10 16 47 51 14 5
6 12 5 48 74 46 44 32 100 100 100 19 14 91 45 96 99 85 78 76 31 5 5 72 100 100 94 98 8 0 5 66 93 99 93 5 5 6 4 5 0 5 4 0 0 3 14 45 6
88 100 86 11 78 91 96 70 100 100 100 100 100 100 98 89 100 100 100 88 98 99 50 62 8 100 100 49 82 7 84 56 100 17 35 100 100 10 1 3 2 0 0 5 4 1 5 5 6
83 65 81 66 88 100 89 25 100 21 80 85 99 100 88 19 23 76 100 100 87 61 41 59 98 63 100 72 71 25 44 60 44 26 100 97 13 18 41 12 5 58 17 3 0 0 0 0 1
92 89 30 23 83 93 86 33 100 100 91 27 19 32 60 68 59 100 100 93 100 98 100 100 88 96 97 48 79 100 100 44 24 92 84 80 93 74 34 9 6 29 44 37 5 0 0 0 1
93 89 100 98 27 5 45 56 100 100 98 94 60 25 5 98 100 96 100 100 100 90 100 100 100 100 95 82 98 77 38 67 39 13 53 6 22 20 50 96 46 8 34 88 30 5 2 1 0
100 100 100 100 99 90 5 12 74 96 23 12 62 100 100 13 71 8 6 55 100 91 56 74 99 100 100 100 100 100 100 98 98 15 5 5 5 40 79 64 98 100 65 74 85 100 85 89 7
100 100 100 100 100 100 51 65 5 97 100 77 30 32 88 100 88 11 59 93 87 100 98 100 91 100 100 100 100 100 100 100 100 100 100 98 49 9 5 5 5 6 40 46 14 50 100 100 84
100 100 100 100 100 100 100 100 100 92 100 100 100 75 100 100 100 100 100 100 100 100 100 100 100 100 100 100 100 100 100 100 100 100 100 100 100 100 100 83 17 26 95 92 70 43 40 26 100
100 100 100 100 100 100 100 100 100 100 100 100 100 100 99 100 100 100 100 100 100 100 100 100 99 100 100 100 100 100 100 100 100 100 100 100 100 100 100 100 100 100 100 98 79 50 88 55 31

GFSSGP_prec_cloud_024.txt.gz
Cloud_Cover
0 0 0 0 0 0 0 0 0 0 0 0 0 0 0 0 0 0 0 0 0 0 0 0 0 0 6 26 0 0 0 0 0 0 7 12 5 5 12 91 29 5 91 70 100 91 100 99 40
0 0 0 0 0 0 0 0 0 0 0 0 0 0 0 0 0 0 0 0 0 0 0 0 0 0 0 0 0 0 0 0 0 10 6 8 1 8 9 4 14 41 26 100 84 81 72 13 33
0 0 0 0 0 0 0 0 0 0 0 0 0 0 0 0 0 0 0 0 0 0 0 0 0 0 0 0 0 0 0 0 0 0 0 1 7 0 0 0 94 98 28 66 94 95 100 92 5
0 0 0 0 0 0 0 0 0 0 0 0 0 0 0 0 0 0 0 0 0 0 0 0 0 0 0 0 0 0 0 0 0 0 0 9 19 0 0 0 100 100 30 27 92 100 85 100 6
0 0 0 0 0 0 0 0 0 0 0 0 0 0 0 0 0 0 0 0 0 0 0 0 0 0 0 0 0 0 0 0 0 0 0 0 0 0 0 1 100 100 35 0 81 100 79 5 17
0 0 0 0 0 0 0 0 0 0 0 0 0 0 0 0 0 0 0 0 0 0 0 0 18 0 1 0 0 0 0 0 0 0 0 0 0 0 0 12 82 58 0 0 2 5 6 100 86
0 0 0 0 0 0 0 0 4 2 0 0 2 0 0 0 0 0 0 0 0 0 0 0 0 10 44 60 60 0 0 0 0 0 0 0 0 0 0 35 23 4 0 0 0 0 0 53 100
0 0 0 0 0 0 2 58 0 0 0 0 5 2 0 0 0 0 0 0 0 0 0 0 0 0 2 10 34 6 0 0 0 13 0 0 0 0 0 30 0 0 0 0 0 0 0 0 0
0 0 0 0 0 0 4 5 69 1 0 4 0 0 0 0 0 0 0 0 0 0 0 0 0 0 0 0 26 64 8 1 1 40 20 0 0 0 0 0 0 0 0 0 0 0 0 0 0
0 0 0 0 0 0 0 0 2 2 0 60 92 3 0 0 0 0 0 0 0 0 0 0 0 0 0 0 1 29 39 17 10 63 26 0 0 0 0 0 0 0 0 0 0 0 0 0 0
0 1 0 0 0 0 0 0 0 4 13 3 16 91 7 0 0 0 0 0 0 0 0 0 0 0 0 0 0 3 22 28 40 60 91 68 28 0 0 0 0 0 0 0 0 0 0 0 0
4 2 0 0 0 1 5 0 0 5 0 0 0 0 3 0 0 0 0 0 0 5 5 1 0 0 0 0 0 0 0 4 100 91 94 78 100 55 0 0 0 0 0 0 0 0 0 0 0
5 4 2 0 0 0 0 0 2 10 2 0 0 0 0 0 0 0 0 0 0 0 3 21 9 0 0 0 0 0 0 0 0 93 92 14 63 86 0 0 0 0 0 0 0 0 0 0 0
11 7 38 5 0 0 2 2 4 0 46 72 0 0 0 0 0 0 0 0 0 0 0 2 5 0 0 0 0 0 0 0 0 0 29 52 25 4 0 0 0 0 0 0 0 0 0 0 0
5 46 36 10 3 2 11 76 5 5 5 87 100 6 0 0 0 0 0 18 5 0 0 0 0 5 0 0 0 0 0 0 0 0 2 30 34 1 0 0 0 0 0 0 0 0 0 0 0
37 25 5 51 3 0 0 75 50 6 20 48 23 4 0 0 0 19 83 56 5 5 5 0 0 0 0 0 0 0 0 0 0 0 0 18 0 0 0 0 0 0 0 0 0 0 0 0 0
63 51 47 5 20 38 3 2 72 97 5 11 12 5 5 4 9 97 100 100 12 16 95 93 34 5 16 5 0 0 0 0 0 10 38 57 30 4 0 0 0 0 0 0 0 0 0 0 0
100 98 22 14 40 64 85 11 40 5 42 61 40 0 3 3 61 36 6 28 79 53 98 87 100 96 92 66 32 5 0 0 0 20 38 100 91 24 0 0 0 0 0 0 0 0 0 0 0
21 49 85 16 5 20 28 52 71 5 42 100 99 52 4 0 5 5 5 5 0 0 5 5 78 82 47 5 26 51 70 1 0 55 100 100 100 85 19 0 0 0 0 2 1 0 4 5 0
8 6 78 84 23 5 43 92 100 100 78 80 96 100 100 44 5 6 5 78 5 2 1 5 5 5 18 6 5 16 13 12 5 5 36 100 100 100 83 27 1 0 0 0 0 5 5 16 6
92 98 94 88 89 98 45 63 37 72 100 99 100 100 100 100 66 18 43 11 5 40 44 12 27 50 6 44 65 7 12 79 28 6 16 33 90 100 100 96 42 2 1 0 0 0 0 3 5
57 30 6 21 46 99 23 98 100 16 17 97 100 100 100 100 100 100 91 10 100 90 49 6 38 90 76 7 98 81 100 92 5 39 57 21 0 41 76 100 97 85 13 0 0 0 0 0 0
8 7 85 42 91 34 49 5 27 69 5 96 100 100 100 100 100 100 100 100 100 100 98 45 89 89 52 100 54 94 25 100 100 100 100 96 86 34 36 94 97 56 65 54 2 0 0 0 0
100 15 68 7 5 97 33 10 100 100 86 8 57 100 100 100 98 99 100 100 100 100 100 100 94 12 5 47 47 39 71 54 100 100 100 100 55 45 98 84 95 89 82 100 40 2 0 0 4
43 60 11 5 14 29 55 37 100 100 19 5 5 50 80 99 68 95 100 100 100 71 71 100 100 100 100 86 7 19 68 80 98 100 100 42 66 82 5 7 68 56 48 98 100 100 95 5 0
64 82 99 38 48 5 86 47 100 100 20 6 6 6 69 8 48 11 90 100 94 58 51 64 74 100 100 93 100 99 87 9 26 68 100 100 25 100 94 14 3 12 62 18 26 8 22 95 22
98 100 100 100 100 77 34 53 100 100 99 91 14 66 5 100 99 81 66 14 73 89 90 45 32 73 98 93 100 100 100 100 100 43 40 98 84 16 80 77 72 97 52 5 58 31 5 4 30
100 100 100 100 100 100 100 100 100 100 94 100 100 96 99 100 100 100 100 100 94 81 94 100 100 99 70 96 100 96 100 100 100 100 100 100 59 91 84 66 46 98 85 70 9 5 2 7 16
100 100 100 100 100 100 100 100 100 70 100 59 100 100 41 85 100 100 100 100 100 100 100 100 100 100 100 100 100 100 100 100 100 92 100 100 100 100 100 100 89 100 100 99 96 92 60 5 10
100 100 100 100 100 100 100 100 51 3 38 85 100 100 100 79 72 95 100 100 100 100 100 99 100 100 100 100 100 99 100 100 100 100 100 100 100 100 100 100 100 100 100 100 100 100 100 88 77

GFSSGP_prec_cloud_027.txt.gz
Cloud_Cover
0 0 0 0 0 0 0 0 0 0 0 0 0 0 0 0 0 0 0 0 0 0 0 0 0 0 0 0 0 0 0 1 4 0 0 0 0 5 5 8 79 100 100 100 70 64 54 57 78
0 0 0 0 0 0 0 0 0 0 0 0 0 0 0 0 0 0 0 0 0 0 0 0 0 0 0 0 0 0 0 0 10 1 1 0 0 0 2 5 68 55 95 100 99 64 69 42 94
0 0 0 0 0 0 0 0 0 0 0 0 0 0 0 0 0 0 0 0 0 0 0 0 0 0 0 0 0 0 0 0 0 4 7 1 0 0 0 9 8 18 97 95 81 100 90 75 79
0 0 0 0 0 0 0 0 0 0 0 0 0 0 0 0 0 0 0 0 0 0 0 0 0 0 0 0 0 0 0 0 0 0 0 6 13 4 0 0 62 100 51 100 94 78 90 87 5
2 0 0 0 0 0 0 0 0 0 0 0 0 0 0 0 0 0 0 0 0 0 0 0 0 0 0 0 0 0 0 0 0 0 0 0 29 0 0 0 40 100 99 90 100 100 100 100 54
5 0 0 0 0 0 0 0 0 0 0 0 0 0 0 0 0 0 0 0 0 0 0 0 4 0 0 0 0 0 0 0 0 0 0 0 0 0 0 0 94 100 58 0 80 100 100 34 100
9 2 0 0 0 0 0 2 0 0 0 2 2 0 0 0 0 0 0 0 0 0 0 6 7 0 21 0 0 0 0 0 0 0 0 0 0 0 0 0 3 57 3 0 0 1 1 0 88
5 0 0 0 0 0 0 0 0 0 0 46 22 0 0 0 0 0 0 0 0 0 0 1 12 27 39 33 92 96 31 0 0 0 0 0 0 0 0 0 13 27 0 0 0 0 0 0 0
0 0 0 0 0 0 0 0 0 0 0 58 10 1 1 0 0 0 0 0 0 0 0 0 2 18 32 29 53 100 100 33 2 1 4 2 16 0 0 0 0 0 0 0 0 0 0 0 0
0 0 0 0 0 0 0 0 0 0 0 1 96 6 0 0 0 0 0 0 0 0 0 0 0 0 12 24 24 66 59 30 21 4 90 100 47 2 0 0 0 0 0 0 0 0 0 0 0
0 0 0 0 0 0 0 0 0 0 3 0 0 0 0 0 0 0 0 0 0 0 0 0 0 0 0 0 10 48 99 99 60 9 97 100 95 35 0 0 0 0 0 0 0 0 0 0 0
0 0 0 0 0 0 1 0 0 0 1 4 0 0 0 0 0 0 0 0 0 0 0 2 7 0 0 0 0 43 96 99 61 26 100 100 100 100 49 0 0 1 0 0 0 0 0 0 0
5 5 5 5 0 0 4 2 5 1 2 1 0 0 0 0 0 0 0 0 0 0 0 0 1 5 5 2 0 21 49 57 21 4 99 100 100 100 100 16 0 1 0 0 0 0 0 0 0
5 5 5 5 0 3 0 0 4 5 93 94 5 0 0 0 0 1 4 0 0 0 0 0 0 0 0 0 0 0 4 2 0 0 1 100 100 100 74 26 0 0 0 0 0 0 0 0 0
5 12 5 5 5 13 0 0 0 0 5 10 100 8 29 0 5 6 2 4 0 0 4 4 0 0 0 0 0 0 0 13 4 0 0 0 94 100 100 45 0 0 0 0 0 0 0 0 0
100 7 56 95 8 5 8 20 83 1 0 5 5 5 1 46 27 5 1 1 0 2 16 5 12 14 0 0 0 0 0 0 8 6 9 14 94 100 100 97 33 0 0 0 0 0 0 0 0
95 87 100 96 100 73 10 11 53 99 9 0 0 0 4 5 46 13 2 5 5 10 12 21 2 20 74 56 1 5 4 0 0 45 100 100 100 100 100 95 53 1 0 0 0 0 0 0 0
6 6 27 100 100 92 67 100 56 14 98 96 9 0 5 4 0 14 5 5 5 8 26 41 100 37 4 1 9 5 5 5 2 36 100 100 100 100 100 99 86 17 0 0 0 0 0 0 0
5 5 27 98 85 42 98 100 100 97 9 76 100 100 99 21 5 4 5 5 5 4 5 22 5 5 3 0 4 16 8 5 48 87 100 100 100 100 100 100 100 86 11 0 0 0 0 0 0
12 19 5 5 6 5 15 73 100 89 8 82 100 100 100 100 100 100 100 100 95 95 11 5 5 5 42 5 5 5 5 5 3 28 78 100 100 100 100 100 100 100 72 34 0 3 4 5 3
87 99 90 55 12 5 50 100 100 100 100 100 73 25 30 15 100 100 100 100 100 100 95 61 7 8 5 24 5 8 3 3 5 15 86 100 100 100 100 100 100 100 100 100 46 5 5 0 2
84 5 5 5 3 15 74 99 100 88 49 86 99 16 5 5 5 94 100 100 100 100 100 100 100 100 92 5 56 47 4 4 5 19 9 12 43 100 100 100 100 100 100 100 100 94 28 0 2
58 7 5 5 5 5 5 7 62 96 19 81 79 75 17 91 42 24 98 100 100 100 100 100 100 100 100 100 88 42 6 43 12 16 55 96 85 59 99 51 94 100 100 100 100 100 100 95 20
8 5 28 6 5 5 91 20 99 95 5 50 65 99 94 66 74 33 98 83 100 100 100 100 100 100 100 100 100 100 97 80 40 17 42 7 89 100 100 100 99 100 100 100 100 100 100 100 100
45 18 7 8 78 77 24 52 86 35 12 8 21 33 19 6 38 88 95 66 82 88 100 98 95 100 100 100 100 100 100 100 6 78 76 96 80 15 58 100 100 100 100 100 89 100 100 92 61
96 100 100 43 5 21 90 100 82 20 8 5 23 41 5 45 86 75 46 7 5 5 9 23 100 77 90 97 90 100 100 100 100 97 100 71 84 95 64 7 52 100 100 100 100 73 65 85 42
48 55 28 60 100 18 39 84 69 62 20 96 60 39 8 100 22 80 98 99 100 100 100 96 98 42 53 44 76 90 26 78 100 100 100 100 100 99 100 48 5 16 99 31 43 92 99 33 5
100 99 68 93 89 99 11 96 100 100 99 100 100 100 100 84 31 96 92 98 93 100 100 100 100 58 84 88 84 90 95 96 100 93 95 100 100 100 100 100 98 60 45 39 69 72 82 69 98
98 96 81 71 100 100 98 100 100 100 100 100 100 100 100 51 17 21 30 99 100 100 38 81 91 85 100 100 100 100 100 100 100 96 100 100 96 100 100 100 100 100 38 20 83 98 53 60 70
100 100 92 100 100 100 76 23 99 24 41 75 99 74 86 28 45 97 71 98 100 99 98 100 100 100 89 85 98 96 100 100 100 100 100 100 100 100 100 74 100 100 93 81 81 41 71 100 99

GFSSGP_prec_cloud_030.txt.gz
Cloud_Cover
0 0 0 0 0 0 0 0 0 0 0 0 0 0 0 0 0 0 0 0 0 0 0 0 0 0 0 0 0 0 0 1 5 5 5 5 33 60 9 98 100 100 100 100 99 100 100 62 45
0 0 0 0 0 0 0 0 0 0 0 0 0 0 0 0 0 0 0 0 0 0 0 13 0 0 0 0 0 0 0 0 1 0 3 5 5 5 5 6 31 98 98 100 100 100 100 100 100
0 0 0 0 0 0 0 0 0 0 0 0 0 0 0 0 0 0 0 0 0 0 0 0 0 0 0 0 0 0 0 0 0 3 1 0 21 5 5 5 5 5 95 68 67 91 100 100 100
0 2 0 0 0 0 0 0 0 0 0 0 0 0 0 0 0 0 0 0 0 0 0 0 0 0 0 0 0 0 0 0 0 0 7 8 0 0 0 4 0 17 50 62 98 99 100 100 100
0 0 0 0 0 0 0 0 0 0 0 0 0 0 0 0 0 0 0 0 0 0 0 2 0 0 4 10 8 0 0 0 0 0 0 0 17 2 0 0 0 96 100 8 5 73 100 100 100
5 5 0 0 0 0 0 0 0 0 0 0 0 0 0 0 0 0 0 0 0 0 0 0 16 0 50 69 55 0 0 0 0 0 0 0 22 0 0 0 0 97 100 49 0 4 74 100 100
4 3 0 0 0 0 0 0 1 0 0 3 2 0 0 0 0 0 0 0 0 0 0 8 30 10 21 5 0 0 0 0 0 0 0 0 0 0 0 0 0 93 100 8 0 0 1 50 100
1 5 0 0 0 0 0 0 0 0 0 0 16 0 0 0 0 0 0 0 0 0 0 20 28 43 53 50 20 7 0 0 0 0 0 0 0 0 0 0 0 0 15 0 0 0 0 1 46
5 0 0 0 0 0 0 0 0 0 0 0 4 5 0 0 0 0 0 0 0 0 0 19 36 43 51 66 53 80 76 59 30 13 5 31 14 0 0 0 0 0 0 0 0 0 0 0 0
0 0 0 0 0 0 0 0 0 0 0 0 2 2 0 0 0 0 0 0 0 0 0 0 24 40 52 57 50 84 100 100 100 21 13 100 99 62 0 0 0 0 0 0 0 0 0 0 0
0 0 0 0 0 0 0 0 0 4 0 0 0 0 0 0 0 0 0 0 0 0 0 0 0 0 34 55 70 86 77 98 74 52 13 40 100 100 100 49 0 0 0 0 0 0 0 0 0
0 0 0 0 0 0 2 0 0 1 6 0 0 0 0 0 0 0 0 0 0 0 0 0 0 0 1 5 54 67 96 90 100 85 4 70 100 100 100 100 57 10 0 0 0 0 0 0 0
2 0 0 0 0 0 4 0 0 0 7 5 0 0 0 0 0 2 2 0 0 0 0 0 0 0 0 2 18 51 99 100 100 100 24 0 90 100 100 100 100 52 0 0 0 0 0 0 0
18 5 5 1 0 0 0 0 5 0 5 3 0 0 0 0 0 0 0 0 0 0 0 0 0 0 0 0 4 30 78 100 100 98 9 0 98 100 100 100 100 36 0 0 0 0 0 0 0
99 100 97 10 5 3 4 63 5 5 5 5 0 0 1 0 0 0 0 0 0 0 0 1 0 0 0 0 0 10 36 48 61 32 14 2 11 92 100 100 100 58 0 0 0 0 0 0 0
91 57 100 100 74 89 32 85 96 5 5 21 0 0 0 0 0 0 0 4 5 5 1 3 5 29 5 5 1 0 2 10 16 52 94 91 92 100 100 100 100 100 100 90 3 0 0 0 0
98 100 100 100 100 82 81 99 100 100 70 3 0 0 2 0 0 3 0 0 0 0 5 4 4 5 5 3 5 5 10 5 32 88 100 100 100 100 100 100 100 100 100 100 36 0 0 0 0
5 5 10 42 27 6 98 100 100 100 100 100 88 45 5 3 2 4 2 3 5 4 2 4 66 5 5 6 12 18 4 6 66 80 100 100 100 100 100 100 100 100 100 100 58 0 0 0 0
14 42 65 54 7 9 7 58 53 79 100 100 100 100 100 100 100 100 77 7 0 5 10 69 61 11 29 94 64 48 47 5 58 100 100 100 100 100 100 100 100 100 100 100 100 96 13 0 0
21 44 5 46 34 68 97 98 16 5 26 81 71 93 100 100 100 100 100 100 100 42 5 96 100 98 90 92 33 73 82 21 12 91 100 100 100 100 100 99 100 100 100 100 100 100 100 73 5
5 5 5 5 5 5 16 24 36 10 42 81 100 100 100 100 100 100 86 84 65 100 100 100 94 100 100 100 100 97 100 100 100 93 98 100 100 100 100 100 100 100 100 100 100 100 100 100 100
5 5 5 5 5 5 5 3 32 3 3 5 15 64 100 100 98 100 93 80 73 98 97 91 86 100 100 100 100 100 85 45 100 100 73 98 99 82 95 100 100 100 100 100 100 100 100 100 100
5 5 5 5 0 2 6 0 5 8 4 6 4 0 1 8 99 100 100 100 100 100 100 100 100 100 100 100 100 73 100 89 100 88 99 21 37 12 5 5 6 55 97 100 100 100 100 100 100
93 72 24 13 9 5 21 1 1 21 8 77 57 22 5 4 5 72 100 100 97 100 100 88 100 92 94 100 100 100 100 100 100 100 78 100 73 13 26 64 53 81 66 43 57 100 100 100 100
79 69 80 52 53 50 48 46 31 5 6 48 11 27 42 13 62 93 50 28 11 53 74 66 90 82 33 9 5 12 92 97 100 100 100 100 42 89 100 23 13 86 82 74 78 100 95 100 100
99 100 90 8 35 73 40 66 100 97 71 8 5 8 41 91 14 5 17 65 67 93 93 46 30 60 59 100 95 85 97 12 53 100 96 98 100 95 68 88 51 74 42 68 94 100 91 88 100
100 97 60 17 24 5 5 53 77 64 86 98 14 16 11 44 5 5 6 63 73 68 34 31 43 37 9 5 11 5 38 96 100 100 100 100 100 100 87 95 100 83 99 100 94 100 100 100 94
100 69 41 16 5 84 5 5 5 5 5 36 90 59 34 70 100 98 97 94 100 96 85 72 93 100 99 99 78 95 5 23 78 85 80 28 99 100 94 41 91 100 100 99 100 100 100 100 100
91 40 35 28 5 5 6 0 0 8 14 63 100 100 100 100 100 97 71 99 85 63 74 80 59 64 77 96 99 98 8 5 100 25 20 63 81 42 42 5 5 5 83 88 100 100 100 99 97
91 13 7 5 5 5 5 0 70 100 100 100 100 100 6 100 88 6 5 18 5 5 5 2 0 0 0 12 100 100 98 93 33 22 5 0 5 9 100 97 17 5 5 6 11 98 100 100 100

GFSSGP_prec_cloud_033.txt.gz
Cloud_Cover
0 0 0 0 0 0 0 0 0 0 0 0 0 0 0 0 0 0 0 0 0 0 3 2 0 0 0 0 0 0 0 0 3 5 13 33 8 8 47 91 26 30 27 37 96 100 94 80 88
0 0 0 0 0 0 0 0 0 0 0 0 0 0 0 0 0 0 0 0 0 0 1 21 0 2 0 2 0 0 0 1 16 4 5 2 5 5 93 100 97 78 65 69 89 96 94 100 72
0 0 0 4 0 0 0 0 0 0 0 0 0 0 0 0 0 0 0 0 0 0 1 7 0 0 0 1 0 0 0 0 4 4 5 4 2 4 5 57 64 90 50 58 100 96 35 90 100
1 0 1 3 0 0 0 0 0 0 0 0 0 0 0 0 0 0 0 0 0 1 1 4 0 0 0 0 0 0 0 0 0 0 13 3 18 15 31 5 52 34 51 42 10 46 96 100 100
0 0 3 5 0 0 0 0 0 0 0 0 0 0 0 0 0 0 0 0 0 6 6 13 0 4 0 0 0 0 0 0 0 0 0 0 0 0 4 5 5 5 46 70 5 5 100 85 61
5 0 5 5 1 0 0 0 0 0 0 0 0 0 0 0 0 0 0 0 0 1 4 12 29 2 0 0 0 1 0 0 0 0 0 0 0 0 0 0 0 0 100 100 12 5 5 5 18
4 0 2 5 0 0 0 0 0 0 0 0 0 0 0 0 0 0 0 0 0 0 1 25 43 32 16 84 100 98 0 0 0 0 0 0 0 0 0 0 0 0 39 83 15 2 2 1 3
5 0 4 4 0 0 0 0 0 0 0 0 0 0 0 0 0 0 0 0 0 0 0 26 45 91 44 27 98 47 0 0 0 0 0 0 0 0 0 0 0 0 0 14 7 0 0 0 0
2 0 0 0 0 0 0 0 0 0 0 0 0 0 0 0 0 0 0 0 0 0 0 12 39 89 100 100 74 68 12 7 1 10 32 32 57 16 0 0 0 0 0 0 1 0 0 0 0
0 0 0 0 0 0 0 0 0 0 0 0 0 0 0 0 0 0 0 0 0 0 0 4 35 58 100 100 100 96 90 100 100 100 64 25 5 98 66 13 0 0 0 0 0 0 0 0 0
0 0 0 0 0 0 0 0 0 0 0 0 0 0 0 0 0 0 0 0 0 0 0 0 4 47 98 100 100 100 95 29 100 100 100 88 30 100 100 100 96 29 0 0 0 0 0 0 0
0 0 0 0 0 0 0 0 0 0 0 0 0 0 0 0 1 0 0 0 0 0 0 0 0 12 56 99 100 100 100 50 58 100 100 100 87 100 100 100 100 100 76 9 0 0 0 0 0
5 0 0 0 0 1 0 0 0 0 0 0 0 0 0 0 2 0 0 0 0 0 0 0 0 0 8 44 76 100 100 100 91 78 62 62 39 99 100 100 100 100 100 97 7 0 0 0 0
100 70 37 56 17 5 2 4 4 5 1 0 0 0 0 0 0 0 0 0 0 0 0 0 0 0 0 11 35 82 100 100 100 100 94 100 52 31 18 100 100 100 100 59 21 0 0 0 0
53 89 100 100 28 5 76 97 5 5 0 0 0 0 0 0 0 0 0 0 0 0 0 0 0 0 0 0 14 38 100 100 100 100 100 96 47 85 96 100 100 100 100 90 79 18 0 0 0
5 74 35 5 5 37 39 100 95 40 3 0 0 0 0 0 1 0 0 0 0 0 0 0 0 0 0 0 9 20 35 82 95 96 100 100 100 100 100 100 100 100 100 100 100 100 95 3 0
5 5 76 53 5 5 26 100 100 6 5 38 29 3 0 2 4 5 1 0 0 0 1 0 0 0 0 0 7 22 91 96 100 100 100 100 100 100 100 100 100 100 100 100 100 100 100 89 0
5 5 5 8 5 5 17 24 45 5 9 5 56 75 71 41 2 1 5 5 5 5 5 21 17 3 6 12 1 14 65 99 100 100 100 100 100 100 100 100 100 100 100 100 100 100 100 100 81
5 5 5 5 5 58 42 96 64 36 25 92 15 41 48 100 100 100 100 100 79 29 5 5 76 100 100 100 100 87 5 16 67 100 100 100 100 100 100 100 100 100 100 100 100 100 100 100 100
5 5 11 22 5 9 6 5 5 5 39 76 44 69 85 42 94 96 100 100 100 100 100 100 87 45 27 5 68 100 100 100 68 72 100 100 100 100 100 100 100 100 100 100 100 100 100 100 100
5 5 5 5 0 0 2 4 5 5 5 5 5 4 5 32 5 8 71 100 100 100 100 100 100 100 100 100 76 43 37 100 100 100 100 100 99 100 100 100 100 100 100 100 100 100 100 100 100
5 0 5 5 0 0 3 0 2 0 0 0 0 0 0 0 4 5 5 5 8 72 100 100 100 100 100 100 100 100 100 100 100 100 100 100 100 100 100 100 100 100 100 100 100 100 100 100 100
31 6 7 13 5 5 97 10 53 40 79 8 6 6 6 0 0 0 2 5 5 24 29 58 99 100 100 100 100 96 100 71 96 100 100 100 100 100 51 100 100 100 100 100 97 59 95 100 100
54 59 5 5 5 6 91 46 66 99 100 100 89 34 23 62 70 60 42 38 21 36 62 18 100 100 89 72 47 97 59 65 100 76 8 69 100 100 100 76 39 99 46 100 100 100 95 70 93
40 30 6 5 15 5 20 39 99 35 10 23 26 16 31 76 66 40 97 76 27 88 21 6 31 68 72 90 8 61 12 6 19 45 36 74 76 99 98 90 99 86 70 36 76 75 100 100 100
61 99 84 48 15 99 99 91 96 100 100 100 98 78 32 8 5 11 37 17 5 27 63 45 33 18 81 80 67 98 97 99 34 86 82 59 79 100 100 100 94 88 80 100 100 98 100 100 100
93 99 99 81 100 88 99 100 99 78 39 19 52 12 5 5 5 5 5 5 5 6 5 14 12 31 70 24 14 10 5 7 6 56 6 61 26 94 99 99 100 100 100 100 100 96 100 100 100
83 99 100 100 34 69 32 59 100 100 98 35 5 5 5 5 5 5 5 17 5 5 19 91 86 5 30 2 3 1 0 2 2 0 0 2 3 12 70 17 77 100 100 90 91 100 94 100 100
100 45 79 100 100 100 94 100 100 100 26 6 28 69 6 23 57 52 96 70 61 75 76 50 4 0 2 0 4 1 0 0 0 0 0 0 0 2 23 84 89 5 11 75 84 5 76 11 97
100 100 100 91 77 57 87 86 57 7 5 7 92 100 100 100 68 100 100 100 100 100 100 5 0 0 5 5 5 0 0 0 0 0 0 0 0 0 0 0 0 0 1 91 94 0 0 0 5

GFSSGP_prec_cloud_036.txt.gz
Cloud_Cover
0 0 0 0 0 0 0 0 0 0 0 0 0 0 0 0 0 0 0 0 0 0 0 1 0 0 0 0 0 0 0 0 0 0 0 4 5 63 98 100 97 35 71 41 75 93 89 95 100
0 0 0 0 0 0 0 0 0 0 0 0 0 0 0 0 0 0 0 0 0 0 2 4 0 0 0 0 0 0 0 0 0 0 0 12 3 13 100 50 64 68 84 82 42 63 90 98 100
5 4 0 0 0 0 0 6 0 0 0 0 0 0 0 0 0 0 0 0 0 0 4 6 0 0 0 0 0 0 0 0 0 0 0 0 3 2 92 18 5 17 10 27 27 95 84 64 100
5 0 2 5 0 0 0 4 5 0 0 0 2 5 0 0 0 0 0 0 0 12 14 4 0 0 1 4 0 0 0 0 0 0 0 0 0 4 13 100 98 25 5 13 18 5 31 100 100
5 5 5 5 0 0 0 0 0 0 0 0 0 0 0 0 0 0 0 0 0 7 25 13 0 0 2 8 0 0 0 0 0 0 0 0 0 0 4 7 27 15 5 5 15 6 16 88 98
9 26 4 6 5 0 0 0 0 0 0 0 0 0 0 0 0 0 0 0 0 2 18 19 40 12 0 0 0 0 0 0 0 0 0 0 0 0 0 0 4 5 5 5 38 26 44 48 91
5 5 5 5 67 3 0 0 0 0 0 0 0 0 0 0 0 0 0 0 0 0 3 22 35 76 55 9 0 0 4 0 0 0 0 0 0 0 0 0 0 0 1 2 16 30 95 85 74
0 0 4 0 0 0 0 0 0 0 0 0 0 0 0 0 0 0 0 0 0 0 0 10 42 97 74 45 82 100 100 36 0 0 0 0 0 0 0 0 0 0 0 0 3 0 0 0 0
0 0 0 0 0 0 0 0 0 0 0 0 0 0 0 0 0 0 0 0 0 0 0 0 39 100 100 97 57 100 100 64 13 24 37 79 17 42 5 1 0 0 0 0 0 0 0 0 0
0 0 0 0 0 0 0 0 0 0 0 0 0 0 0 0 0 0 0 0 0 0 0 0 13 99 100 100 100 84 54 18 94 100 74 62 17 61 99 100 97 85 18 0 0 0 0 0 0
0 0 0 0 0 0 0 0 0 0 0 0 0 0 4 4 0 0 0 0 0 0 0 0 0 22 100 100 100 100 100 82 100 100 100 100 100 87 100 100 100 100 100 82 9 1 0 0 0
0 0 0 0 0 0 0 0 0 0 0 0 0 0 1 5 4 0 0 0 0 0 0 0 0 0 52 100 100 100 100 99 52 1 100 100 100 100 100 100 100 100 100 100 100 52 0 0 0
0 0 0 1 0 3 1 1 0 0 0 0 0 0 3 0 0 0 0 0 0 0 0 0 0 0 0 100 100 100 100 100 100 100 100 100 100 100 100 100 100 100 100 100 100 99 25 0 0
5 5 5 2 0 5 3 4 0 0 0 0 0 4 0 0 0 0 0 0 0 0 0 0 0 0 0 73 100 100 100 100 100 82 51 80 80 100 100 100 100 10 100 100 100 1 6 0 0
67 78 18 5 1 0 5 0 0 0 0 0 0 0 5 3 4 5 5 5 5 5 3 0 0 4 29 57 62 100 100 100 100 100 100 100 100 98 92 75 100 100 90 100 100 100 96 100 91
96 98 58 5 5 5 46 9 0 0 2 3 0 0 0 0 5 5 5 5 5 5 5 5 5 60 93 94 98 100 100 100 100 100 100 100 100 100 100 96 100 100 100 100 100 33 100 100 100
14 72 16 5 5 5 7 29 0 3 5 5 0 0 0 0 0 0 4 5 24 39 22 15 5 30 97 100 100 100 100 86 100 100 100 100 100 100 100 100 100 100 100 100 100 100 100 100 100
74 25 74 19 4 5 61 94 6 46 20 17 5 5 53 13 4 4 2 0 0 1 1 14 46 96 97 84 91 100 100 99 86 100 100 100 95 100 100 100 100 100 100 100 100 100 100 100 100
5 5 29 5 5 12 9 79 42 48 58 49 5 5 5 5 3 5 12 51 12 5 5 5 0 3 2 8 75 98 64 44 92 99 92 100 100 100 100 100 100 100 100 100 100 100 100 100 100
5 5 5 0 0 4 5 28 16 5 4 2 0 1 3 5 3 4 4 4 4 5 5 5 4 5 5 5 5 33 98 68 5 10 10 14 98 100 100 100 100 100 100 100 100 100 100 100 100
5 5 5 5 1 3 1 4 5 4 0 0 0 0 0 0 0 0 2 0 1 2 5 5 5 5 8 32 96 100 92 99 100 100 78 6 7 68 100 100 100 100 100 100 100 100 100 100 100
24 5 5 5 0 0 0 1 5 5 5 4 5 5 0 0 3 1 0 0 0 4 5 1 6 87 79 100 100 75 100 46 76 100 100 100 96 36 12 8 29 54 96 100 100 100 100 100 48
72 78 39 7 5 4 7 1 5 98 54 45 84 68 55 93 45 41 31 76 71 95 89 30 10 4 4 6 9 59 20 69 100 100 100 100 100 48 7 6 6 5 9 14 64 33 10 44 95
100 100 100 100 86 6 29 6 76 69 80 93 78 15 5 17 5 10 23 15 5 5 3 4 3 5 38 61 15 42 45 40 92 100 99 98 80 22 100 99 41 10 26 47 74 87 90 39 9
100 100 98 67 84 5 29 8 70 57 96 100 98 76 46 28 12 5 5 4 3 9 20 5 14 11 6 22 44 84 100 100 99 100 94 75 80 80 36 24 5 33 93 100 100 100 100 100 91
100 100 100 45 48 54 33 97 93 100 100 100 100 100 100 100 100 98 24 12 5 5 5 5 5 5 10 82 100 37 18 79 16 29 84 10 13 65 8 21 30 5 5 16 25 28 100 100 100
100 100 100 100 100 100 87 99 100 100 100 100 100 93 9 5 6 6 6 5 5 5 5 7 5 6 6 17 5 5 5 8 5 5 9 4 26 4 5 3 0 0 0 5 4 90 5 43 62
100 100 100 100 100 100 100 100 100 100 100 100 100 100 93 49 17 5 17 5 5 16 90 25 5 4 5 4 5 20 18 4 4 0 0 3 7 6 3 0 0 0 0 0 0 0 0 0 0
100 100 100 100 100 98 93 97 100 100 100 100 83 100 95 81 93 5 29 19 51 83 94 5 3 5 6 12 28 68 12 10 48 3 1 0 0 0 0 0 0 0 0 0 0 0 0 0 0
100 100 100 100 100 54 5 73 100 60 100 68 95 7 26 86 99 35 85 99 100 100 82 5 5 6 63 30 8 23 100 68 8 0 0 0 0 0 0 0 0 0 0 0 0 0 0 0 0

GFSSGP_prec_cloud_042.txt.gz
Cloud_Cover
0 3 0 0 0 0 0 0 0 0 0 0 0 0 0 0 0 0 0 0 0 0 1 3 0 0 16 0 0 0 0 2 5 7 7 94 82 16 24 56 100 99 66 43 100 51 5 5 7
4 0 0 0 0 0 0 0 0 0 0 0 0 0 0 0 0 0 0 0 0 0 0 13 0 0 0 0 0 0 0 1 0 3 13 5 11 5 40 5 9 23 21 36 8 33 24 15 7
3 4 4 0 0 0 0 0 0 0 0 0 0 0 0 0 0 0 0 0 0 0 1 16 0 27 64 9 0 0 0 0 0 0 6 0 0 1 4 5 5 5 5 14 10 5 71 80 75
0 0 0 0 0 0 0 0 0 0 0 0 0 0 0 0 0 0 0 0 0 0 1 23 0 40 4 0 0 0 0 0 0 0 0 0 0 1 5 5 5 4 2 5 17 5 6 75 66
0 0 0 0 0 0 0 0 0 0 0 0 0 0 0 0 0 0 0 0 0 0 0 1 0 0 0 0 0 0 0 0 0 0 0 0 0 0 0 0 0 2 0 0 0 4 4 5 58
0 0 0 0 0 0 0 0 0 0 0 0 0 0 0 0 0 0 0 0 0 0 9 18 20 37 0 0 0 0 0 0 0 0 0 0 0 2 0 0 0 0 0 0 0 1 4 3 3
5 0 0 0 0 0 0 0 0 0 0 0 0 0 0 0 0 0 0 0 0 0 17 35 34 39 100 13 0 0 0 0 0 0 0 0 0 1 0 0 0 0 0 0 0 0 0 0 0
1 0 0 0 0 0 0 0 0 0 0 0 0 0 0 0 0 0 0 0 0 0 0 36 96 100 100 34 5 1 0 2 0 0 0 0 7 0 0 0 0 0 0 0 0 0 0 0 0
0 0 0 0 0 0 0 0 0 0 0 0 0 0 0 0 0 0 0 0 0 0 0 0 0 100 100 98 90 54 100 92 36 4 20 68 4 64 11 27 8 93 77 16 29 0 0 0 0
0 0 0 0 0 0 0 0 0 0 0 0 0 0 0 0 0 0 0 0 0 0 0 0 0 11 100 100 99 88 100 99 16 1 32 8 14 19 48 91 100 93 100 88 3 51 0 0 0
0 0 0 0 0 0 0 0 0 0 0 0 0 0 0 0 0 0 0 0 0 0 0 0 0 0 4 100 100 100 100 54 14 6 64 100 95 50 29 100 100 100 100 100 99 69 6 0 0
0 0 0 0 0 0 0 0 0 0 2 0 0 0 0 0 0 0 0 0 0 0 0 0 0 0 0 4 99 100 66 75 0 0 37 33 70 100 100 100 96 100 79 100 100 98 87 2 0
0 0 0 0 0 0 0 0 0 2 0 0 0 0 0 0 0 4 5 2 0 0 0 0 0 0 0 0 100 100 100 91 86 51 57 40 31 45 55 95 94 100 100 100 64 21 100 93 6
0 0 0 1 0 0 0 0 0 0 0 0 0 0 0 0 0 0 0 1 1 0 0 0 71 70 0 4 100 100 100 100 100 94 100 100 100 100 100 100 97 100 100 100 100 100 88 100 99
0 0 0 3 0 0 0 0 5 0 0 0 0 0 0 0 0 0 0 0 0 0 19 100 100 100 97 100 100 100 100 100 100 100 100 100 97 100 100 100 92 100 100 100 100 100 100 100 97
0 0 1 5 3 0 4 0 0 0 0 0 0 0 0 0 0 0 0 0 0 32 100 100 100 100 100 100 100 100 100 100 100 99 93 100 100 100 100 97 100 83 100 100 100 100 100 100 100
5 5 24 5 5 0 0 0 2 0 0 0 0 0 0 0 0 0 0 0 0 91 100 100 100 100 100 100 100 100 100 100 100 89 12 70 48 31 100 98 97 100 100 97 92 100 100 100 100
5 5 5 5 0 5 2 1 0 0 0 0 0 0 0 0 0 0 0 0 0 92 100 100 100 100 100 100 100 100 100 85 3 0 0 0 10 6 7 18 18 42 16 43 49 55 70 100 100
5 5 21 22 0 5 5 1 0 2 1 5 5 5 5 0 0 0 0 0 0 3 97 100 100 100 100 99 56 22 0 0 0 0 0 0 0 0 0 0 0 0 0 0 0 5 40 16 7
24 15 79 13 0 0 5 14 2 1 5 5 5 5 5 5 5 5 5 3 0 0 0 2 5 12 6 1 0 0 0 0 0 0 0 0 0 0 0 0 0 0 0 5 28 4 5 6 5
5 7 76 5 0 0 5 8 16 5 18 57 73 48 44 5 5 12 5 4 0 0 0 0 4 5 4 5 5 4 5 5 36 2 0 1 0 3 0 2 1 4 3 1 2 6 27 5 5
0 5 4 1 0 0 2 10 99 97 100 100 100 100 48 5 0 2 3 5 5 5 5 5 6 38 46 50 37 20 83 16 7 6 8 5 5 5 3 5 4 1 5 4 2 0 0 2 5
5 5 5 7 5 4 11 62 95 100 100 100 100 100 47 65 43 44 66 97 40 12 99 100 100 100 100 100 99 100 100 98 48 8 72 9 43 30 5 5 5 5 0 4 4 1 0 0 0
24 46 100 73 5 4 93 98 5 100 100 100 100 100 100 87 17 100 100 100 37 93 100 100 100 100 100 100 100 100 100 100 100 99 100 51 28 55 83 17 33 6 5 4 0 5 55 5 5
100 92 42 31 5 5 47 33 12 95 100 100 100 100 100 100 100 100 100 100 76 100 100 100 100 100 100 100 100 83 100 78 95 27 3 5 23 5 5 5 5 5 5 4 4 5 52 59 23
100 100 100 25 33 5 4 1 17 100 100 100 100 100 100 100 100 100 100 100 100 100 100 100 98 37 15 4 5 4 39 13 28 76 6 5 5 6 3 0 2 5 5 4 5 3 5 15 45
95 93 100 99 8 6 14 42 79 100 100 100 100 100 100 100 100 100 100 100 100 100 100 100 100 98 100 96 20 10 5 5 8 10 27 6 26 6 5 3 0 0 0 0 0 5 6 20 23
100 100 100 100 66 68 98 100 100 100 100 100 100 100 100 100 100 100 100 100 100 100 100 100 100 100 24 8 6 54 75 39 34 15 36 26 71 8 5 0 0 0 1 0 1 3 0 0 0
100 100 100 100 100 100 100 100 100 100 100 100 100 100 100 100 100 100 100 100 100 100 100 100 100 100 100 5 100 56 41 66 58 22 5 17 5 5 5 3 4 5 2 0 0 0 0 0 0
100 100 100 100 100 100 100 100 100 100 100 100 100 100 100 100 100 100 100 100 100 100 100 100 100 57 91 50 11 7 6 92 7 5 5 2 5 5 4 1 1 0 0 0 0 0 0 0 0

GFSSGP_prec_cloud_045.txt.gz
Cloud_Cover
0 0 0 0 0 0 0 0 0 0 0 0 0 0 0 0 0 0 0 0 0 0 13 1 0 0 0 0 0 0 0 5 5 6 6 42 100 100 100 100 100 100 99 88 100 52 6 4 5
0 0 0 0 0 0 0 0 0 0 0 0 0 0 0 0 0 0 0 0 0 0 16 28 5 0 7 0 0 0 0 1 6 1 5 5 40 73 78 100 100 98 100 100 100 100 48 29 5
0 0 0 0 0 0 0 0 0 0 0 0 0 0 0 0 0 0 0 0 0 0 19 86 0 0 8 0 0 0 0 0 0 0 0 0 5 63 99 100 100 100 77 21 29 84 25 56 5
0 0 0 0 0 0 0 0 0 0 0 0 0 0 0 0 0 0 0 0 0 0 4 41 0 0 7 5 0 0 0 0 0 0 1 4 9 5 66 34 58 94 68 88 100 100 26 20 30
3 0 0 0 0 0 0 0 0 0 0 0 0 0 0 0 0 0 0 0 0 0 3 12 0 0 4 0 4 0 0 0 0 0 0 0 0 1 5 21 44 24 43 82 42 88 100 86 80
0 0 4 0 0 0 0 0 0 0 0 0 0 0 0 0 0 0 0 0 0 0 9 23 19 42 6 0 0 2 0 0 0 0 0 0 0 0 1 2 4 4 4 3 5 5 5 5 5
0 0 3 0 0 0 0 0 0 0 0 0 0 0 0 0 0 0 0 0 0 0 8 12 13 7 100 84 0 0 0 0 0 0 0 0 0 0 0 0 0 0 0 0 0 2 2 4 5
0 0 0 1 0 0 0 0 0 0 0 0 0 0 0 0 0 0 0 0 0 0 1 54 100 90 83 69 14 2 17 0 0 0 0 0 6 0 0 5 0 11 2 0 0 0 0 0 0
5 0 0 0 0 0 0 0 0 0 0 0 0 0 0 0 0 0 0 0 0 0 0 0 0 67 100 80 76 54 95 100 52 4 11 68 12 2 44 49 93 99 98 61 1 0 0 0 0
0 0 0 0 0 0 0 0 0 0 0 0 0 0 0 0 0 0 0 0 0 0 0 0 0 0 60 100 32 81 46 1 4 19 8 17 38 32 21 72 100 100 100 100 84 6 0 0 0
0 0 0 0 0 0 0 0 0 0 0 0 0 0 0 0 0 0 0 0 0 0 0 0 0 0 0 100 100 29 14 98 13 63 26 0 39 1 56 39 98 100 93 12 82 56 4 0 0
0 0 0 0 0 0 0 0 0 0 0 0 0 0 0 0 0 0 0 0 0 0 0 0 0 0 0 7 100 100 100 1 98 66 45 34 47 44 91 100 98 99 97 82 23 2 0 26 0
0 0 0 0 0 0 0 0 0 0 4 0 0 0 0 0 0 0 0 0 0 0 0 0 0 0 0 0 100 95 92 42 99 88 87 45 58 38 21 100 73 100 88 100 100 95 99 100 100
0 0 0 0 0 0 0 0 2 0 0 0 0 0 0 0 0 0 0 0 0 0 0 10 81 33 0 13 100 100 100 97 69 68 90 77 82 88 100 100 100 100 100 100 100 93 90 35 85
0 0 0 3 0 0 0 0 5 3 0 0 0 0 0 0 0 0 0 0 0 0 63 100 100 100 100 100 100 100 100 100 100 100 100 100 100 99 100 97 90 100 80 70 82 86 83 100 98
1 0 0 5 0 3 0 1 5 0 0 0 0 0 0 0 0 0 0 0 0 32 100 100 100 100 100 100 100 100 100 100 100 100 100 100 85 78 96 100 100 100 100 99 100 93 100 100 100
4 1 37 5 3 0 0 0 0 5 3 0 0 0 0 0 0 0 0 0 4 96 100 100 100 100 100 100 100 100 100 100 100 99 26 19 52 21 16 89 66 83 100 98 99 83 79 88 18
2 15 8 5 4 0 0 0 0 5 5 3 0 0 0 0 0 0 0 0 86 100 100 100 100 100 100 100 100 99 100 100 34 0 0 0 0 0 1 3 0 5 2 4 22 7 0 0 0
5 5 6 12 0 0 0 0 5 5 0 5 5 0 0 0 3 5 2 0 100 100 100 100 100 100 100 100 100 93 8 1 0 0 0 0 0 0 3 0 0 0 0 0 0 5 23 0 0
5 5 92 6 2 0 0 3 0 3 0 5 1 5 5 5 5 5 1 0 66 100 100 100 100 98 48 0 0 0 0 0 0 2 4 5 4 1 0 0 0 0 0 0 0 0 0 0 0
21 5 98 5 2 0 2 2 0 0 4 0 0 0 0 0 12 83 79 29 6 56 59 48 39 35 6 1 3 4 5 50 35 100 98 29 62 56 66 98 98 77 39 5 47 14 2 1 0
6 3 5 5 0 0 0 2 5 4 2 4 4 0 4 5 6 14 11 5 5 5 5 24 22 24 55 70 97 99 100 48 47 97 100 95 98 66 2 4 3 1 5 7 5 0 3 0 0
13 56 22 5 3 0 1 3 56 7 100 90 5 5 9 20 6 75 100 100 100 46 82 100 100 100 100 98 100 71 20 66 100 100 78 53 0 0 0 0 0 0 2 1 2 0 0 0 0
5 42 96 18 3 3 28 5 3 13 100 94 90 99 36 63 100 100 100 100 100 100 100 100 100 100 100 100 100 100 100 100 100 100 10 5 3 0 0 0 0 0 0 3 2 0 0 0 0
80 92 39 21 38 9 5 44 3 60 100 100 100 67 78 90 100 72 86 54 13 53 95 100 100 100 100 100 100 100 100 100 96 71 70 70 32 42 21 5 5 26 3 4 3 1 0 0 0
4 49 99 87 64 91 87 6 29 100 96 100 100 100 100 100 100 100 100 100 98 71 60 100 100 100 100 100 100 100 100 100 100 100 100 96 40 5 10 98 8 66 17 5 5 0 0 0 0
5 6 100 100 100 44 47 94 63 99 100 100 100 100 100 100 100 100 51 52 100 100 100 100 100 100 100 100 100 100 100 100 100 100 100 89 9 5 5 20 6 5 5 3 0 0 0 0 0
42 98 100 100 98 80 5 5 56 93 94 100 100 100 100 100 100 93 100 100 100 100 100 100 100 100 100 100 100 100 100 100 100 83 17 5 5 5 5 6 12 5 4 0 0 0 0 0 0
67 65 100 100 100 93 89 85 100 100 100 100 100 100 100 100 100 100 100 100 100 100 100 100 100 100 100 100 97 100 100 100 94 48 30 5 35 35 58 12 10 1 0 0 0 0 0 0 0
67 35 96 100 100 100 88 81 100 100 100 100 100 100 100 100 100 100 100 100 100 100 100 100 100 100 100 100 100 100 100 100 82 36 41 13 13 10 64 5 0 0 0 3 0 0 0 0 0

GFSSGP_prec_cloud_048.txt.gz
Cloud_Cover
0 0 0 0 0 0 0 0 0 0 0 0 0 0 0 0 0 0 0 0 0 16 0 0 0 0 0 28 83 100 13 95 87 89 26 95 100 100 100 100 100 100 92 96 11 98 87 66 84
0 0 0 0 0 0 0 0 0 0 0 0 0 0 0 0 0 0 0 0 0 6 0 0 0 0 0 0 1 82 91 2 0 61 100 82 100 100 100 100 100 100 100 100 100 24 100 24 85
0 0 0 0 0 0 0 0 0 0 0 0 0 0 0 0 0 0 0 0 0 1 1 70 0 0 0 0 0 0 0 0 2 12 16 100 95 96 100 100 100 100 100 100 100 100 100 100 92
0 0 0 0 0 0 0 0 0 0 0 0 0 0 0 0 0 0 0 0 0 15 23 14 0 0 0 0 0 0 0 0 0 0 3 10 100 100 40 60 100 100 100 100 100 100 100 100 100
0 0 0 0 0 0 0 0 0 0 0 0 0 0 0 0 0 0 0 0 0 14 21 0 0 0 0 0 0 0 0 0 0 0 0 0 0 0 2 5 5 23 69 100 100 100 100 21 9
0 0 0 0 0 0 0 0 0 0 0 0 0 0 0 0 0 0 0 0 0 2 50 14 33 64 19 17 0 1 1 0 0 0 0 0 0 0 0 0 0 8 5 15 63 51 74 72 80
0 0 0 0 0 0 0 0 0 0 0 0 0 0 0 0 0 0 0 0 0 6 1 22 19 14 100 96 0 0 0 0 0 0 0 0 0 0 0 0 0 0 0 2 6 98 49 77 58
0 0 0 0 0 0 0 0 0 0 0 0 0 0 0 0 0 0 0 0 0 0 0 0 41 95 70 14 19 0 0 1 0 0 0 0 0 4 17 28 47 14 0 0 5 5 5 5 5
3 0 0 0 0 0 0 0 0 0 0 0 0 0 0 0 0 0 0 0 0 0 0 0 1 70 100 81 92 67 80 99 51 4 22 80 2 52 45 56 99 100 88 88 5 0 0 0 0
0 0 0 0 0 0 0 0 0 0 0 0 0 0 0 0 0 0 0 0 0 0 0 0 0 0 33 100 95 51 2 2 14 0 4 0 12 39 0 6 83 100 100 100 59 40 0 0 0
1 0 0 0 0 0 0 0 0 0 0 0 0 0 0 0 0 0 0 0 0 0 0 0 0 0 0 14 100 22 56 5 0 84 62 20 17 12 18 9 45 100 100 100 27 0 0 0 0
0 0 0 0 0 0 0 0 0 0 0 0 0 0 0 0 0 0 0 0 0 0 0 0 0 0 0 4 99 88 15 22 23 57 59 65 28 35 62 98 100 99 100 100 100 91 6 32 18
1 0 0 0 0 0 0 0 0 0 0 0 0 0 0 0 0 0 0 0 0 0 0 0 0 0 0 2 100 100 100 91 100 100 99 52 83 66 100 100 100 100 100 99 100 100 93 9 24
4 0 0 0 0 0 0 0 0 0 0 1 0 0 0 0 0 0 0 0 0 0 0 0 48 7 4 99 96 100 100 60 94 97 100 82 37 57 99 100 100 98 98 93 100 97 100 95 100
0 0 0 0 0 0 0 0 0 4 0 0 0 0 0 0 0 0 0 0 0 0 13 69 100 61 75 100 100 100 100 100 100 82 45 54 14 28 39 87 97 100 100 98 100 100 94 100 100
5 4 0 1 0 2 0 4 86 1 0 0 0 0 0 0 0 0 0 0 0 0 16 100 100 100 100 100 100 100 100 100 100 100 8 20 6 9 48 66 58 74 99 100 97 63 60 61 15
43 0 2 5 3 0 0 0 5 0 0 2 0 0 0 0 0 0 0 0 0 13 98 100 100 100 100 100 100 100 100 100 100 100 4 8 2 0 0 0 2 3 0 0 0 0 0 0 0
0 0 0 0 0 0 0 0 5 0 0 0 3 0 0 0 0 0 0 0 13 100 100 100 100 100 100 100 100 100 100 100 99 7 0 0 0 0 0 0 0 0 0 0 3 2 0 4 0
1 2 5 4 0 0 0 0 0 3 3 5 5 0 0 0 0 0 0 1 78 100 100 100 100 100 100 100 100 100 100 99 30 0 0 0 0 0 0 5 4 1 0 5 0 2 4 0 0
2 4 0 2 0 0 0 0 0 3 7 4 5 0 0 0 0 0 0 5 84 100 100 100 100 100 100 100 100 89 34 3 1 0 3 1 2 69 100 5 4 4 4 0 0 0 0 0 0
43 4 5 4 0 0 0 0 0 2 4 34 2 1 0 0 0 0 4 3 70 100 100 100 100 100 73 31 8 16 39 21 44 25 21 70 100 100 100 60 37 5 5 0 0 0 0 0 0
34 79 4 5 0 0 0 1 3 5 0 83 17 1 4 0 4 5 5 5 45 100 100 100 96 60 82 100 100 100 100 100 100 100 100 100 100 98 99 64 10 8 0 0 1 4 4 0 0
5 5 5 5 0 0 1 0 95 31 5 5 4 5 5 5 5 0 0 5 5 39 99 100 100 100 98 99 100 100 100 100 100 100 68 29 100 100 100 100 99 20 12 5 5 14 5 5 3
5 5 5 2 0 2 4 1 0 94 97 64 4 0 0 2 4 4 5 5 5 22 62 72 99 100 100 100 100 100 100 100 100 100 100 100 100 100 100 91 61 94 96 84 86 28 10 16 1
85 8 5 4 5 4 2 0 0 4 67 100 100 82 34 8 21 32 14 5 17 69 100 100 100 100 100 100 100 100 100 100 100 100 100 100 100 98 55 73 79 100 100 99 95 78 5 5 5
74 31 76 5 5 0 1 1 2 7 79 16 70 100 100 98 40 5 18 66 91 100 94 100 100 100 100 100 100 100 100 100 100 100 100 100 100 100 100 100 100 100 100 100 69 35 5 5 33
5 4 94 18 5 5 0 0 4 88 100 100 100 100 100 90 38 40 71 84 65 50 100 100 100 100 100 100 100 100 100 100 100 100 100 100 100 100 100 100 100 100 100 96 92 95 99 22 7
18 30 97 65 16 19 1 5 5 60 100 100 100 68 79 87 92 91 80 34 11 28 90 81 100 100 100 100 100 100 100 100 100 100 100 100 100 100 100 100 100 100 100 20 17 72 5 2 0
84 5 48 93 56 5 4 1 0 36 94 100 100 100 100 100 100 79 75 100 100 100 100 100 100 100 100 100 100 100 100 100 100 100 100 100 100 100 100 100 100 98 55 16 5 3 0 0 0
99 67 100 100 100 14 5 21 5 87 100 100 100 100 100 100 100 100 100 100 100 100 100 100 100 100 100 100 100 100 100 100 100 97 75 100 90 51 100 85 56 84 83 11 5 0 5 5 5